Regional Weather Roundup
Issued by NWS

Home | Current Version | Previous Version | Text Only | Print | Product List | Glossary On
Versions: 1 2 3 4 5 6 7 8 9 10 11 12 13 14 15 16 17 18 19 20 21 22 23 24 25 26 27 28 29 30 31 32 33 34 35 36 37 38 39 40 41 42 43 44 45 46 47 48 49 50
000
ASHW40 PHFO 221432
RWRHI

WEATHER ROUNDUP FOR HAWAII
NATIONAL WEATHER SERVICE HONOLULU HI
400 AM HST THU JUN 22 2017

THIS IS AN AUTOMATED REPORT THAT HAS NOT BEEN QUALITY CONTROLLED.

NOTE..."FAIR" INDICATES FEW OR NO CLOUDS BELOW 12,000 FEET WITH NO
SIGNIFICANT WEATHER AND/OR OBSTRUCTIONS TO VISIBILITY.

* - THESE SITES REPORT LIMITED FIELDS

HIZ001>004-221500-
KAUAI-NIIHAU-

CITY           SKY/WX    TMP DP  RH WIND       PRES   REMARKS
LIHUE APT      MOCLDY    77  68  73 NE12      29.98F
PORT ALLEN*      N/A     73 N/A N/A E7          N/A
POIPU*           N/A     75 N/A N/A NE6G13      N/A
PRINCEVILLE*     N/A     72 N/A N/A S3          N/A
KOKOLE POINT*  NOT AVBL
MOLOAA DAIRY*    N/A     73  70  88 E2          N/A
WAIMEA HTS*    NOT AVBL
PUU OPAE*      NOT AVBL
PUU LUA*       NOT AVBL
MAKAHA RIDGE*    N/A     70  57  64 CALM        N/A
$$

HIZ005>011-221500-
OAHU-

CITY           SKY/WX    TMP DP  RH WIND       PRES   REMARKS
HONOLULU       PTCLDY    73  65  75 CALM      29.95F
KALAELOA       CLEAR     73  65  75 NE5       29.97S
KANEOHE MCB    NOT AVBL
WHEELER FIELD  FAIR      68  66  94 N3        29.96S
BELLOWS*         N/A    N/A N/A N/A NE15        N/A
KAHUKU*          N/A    N/A N/A N/A E7          N/A
WHEELER*       NOT AVBL
WAIANAE HARBOR NOT AVBL
DILLINGHAM*      N/A     66  64  94 W2          N/A
KAHUKU TRN*      N/A     73  68  83 W6G16       N/A
KAWAILOA*        N/A     70  64  83 E12G23      N/A
KII*             N/A     77  70  78 E12         N/A
MAKUA RANGE*     N/A     75  66  73 W5          N/A
OAHU FOREST NW NOT AVBL
SCHOFIELD BRK*   N/A     70  66  88 MISG        N/A
SCHOFIELD S*   NOT AVBL
WAIANAE VLY*   NOT AVBL
KUAOKALA*      NOT AVBL
HONOULIUULI*   NOT AVBL
MOKUOLOE IS*   NOT AVBL
PALEHUA*       NOT AVBL
WAIAWA PHB*    NOT AVBL
$$

HIZ012>013-221500-
MOLOKAI-

CITY           SKY/WX    TMP DP  RH WIND       PRES   REMARKS
MOLOKAI AIRPT  PTCLDY    75  67  76 CALM      29.97F
KALAUPAPA      NOT AVBL
MAKAPULAPAI*     N/A     75  68  78 E8          N/A
MOLOKAI 1*     NOT AVBL
PUU ALII*        N/A     58  58 100 N2G12       N/A
$$

HIZ016-221500-
KAHOOLAWE-

CITY           SKY/WX    TMP DP  RH WIND       PRES   REMARKS
KAHOOLAWE*     NOT AVBL
HAKIOAWA*        N/A     71  68  89 MISG      30.38S
HONOKANAIA*      N/A     75  67  76 NE8G18    29.89
KANELOA*         N/A     73  68  83 NE12G17   30.02F
KEALIALALO*    NOT AVBL
LUA MAKIKA*    NOT AVBL
$$

HIZ014>015-221500-
LANAI-

CITY           SKY/WX    TMP DP  RH WIND       PRES   REMARKS
LANAI CITY     FAIR      69  66  90 NE10      30.00F
LANAI 1*       NOT AVBL
$$

HIZ017>028-221500-
MAUI-

CITY           SKY/WX    TMP DP  RH WIND       PRES   REMARKS
KAHULUI        CLEAR     73  68  84 NE6       29.95F
KAPALUA-W MAUI NOT AVBL
HANA AIRPORT   MOCLDY    68  68 100 S2        30.00R
HANA*            N/A     72 N/A N/A SW3         N/A
HALEAKALA SUMM   N/A     46   7  19 E23G36      N/A
MAALAEA BAY*     N/A     75 N/A N/A N13G20      N/A
HALEAKALA*     NOT AVBL
KAUPO GAP*     NOT AVBL
KULA 1*          N/A     46  37  71 E3          N/A
$$

HIZ023>026-221500-
BIG ISLAND OF HAWAII COAST AND LOWER SLOPES-

CITY           SKY/WX    TMP DP  RH WIND       PRES   REMARKS
KAILUA KONA    CLEAR     72  63  73 N7        29.91S
HILO           PTCLDY    69  64  84 SW5       29.94F
HONOKAA*         N/A     68 N/A N/A VRB1        N/A
KAWAIHAE MWT*    N/A     75 N/A N/A N6          N/A
KAWAIHAE*        N/A     75 N/A N/A N3        29.92S
SOUTH POINT*     N/A     66 N/A N/A NW10        N/A
UPOLU AIRPORT* NOT AVBL
KAMUELA*       SUNNY     61  55  82 NE14      30.04F
HAKALAU*         N/A    N/A N/A N/A W3          N/A
KALOKO-HONOKO*   N/A     72  63  73 E3          N/A
PALI 2*          N/A     63  57  82 SW12        N/A
KEALAKOMO*       N/A     75  63  64 N13G18      N/A
KAUPULEHU*     NOT AVBL
KAPAPALA*        N/A     59  59 100 N6          N/A
LOWER KAHUKU*    N/A     57  55  94 VRB3G9      N/A
PUHE CS*         N/A     75  66  73 N3G9        N/A
PUHO CS*         N/A     71  66  83 E2          N/A
PTA KEAMUKU*   NOT AVBL
WAIKOLOA*      NOT AVBL
$$

HIZ027>028-221500-
BIG ISLAND OF HAWAII INTERIOR AND SUMMMITS-

CITY           SKY/WX    TMP DP  RH WIND       PRES   REMARKS
BRADSHAW FIELD CLOUDY    47  38  72 CALM      30.25F
MK VISITOR CEN   N/A     45   5  19 N3          N/A
MAUNA KEA*       N/A     41 -22   6 NE9         N/A
MAUNA LOA*       N/A     48 -36   2 MISG        N/A
MAUNA LOA 1*   NOT AVBL
PTA KIPUKA*      N/A     50  50 100 E2          N/A
PTA RANGE 17*    N/A     52  43  71 E6          N/A
PTA WEST*        N/A     48  46  93 SE12        N/A
NENE CABIN*      N/A    N/A N/A N/A N3          N/A
AHUMOA*        NOT AVBL
PTA PORTABLE*  NOT AVBL
PUU MALI*        N/A     52 N/A N/A E10G16      N/A
$$

HIC003-221500-
NORTHWEST ISLANDS-

CITY           SKY/WX    TMP DP  RH WIND       PRES   REMARKS
MIDWAY ISLAND  CLOUDY    75  68  78 E16       30.10F
MIDWAY NOS*      N/A     75 N/A N/A MISG      30.09S
FRENCH FRIGATE NOT AVBL
$$

PHZ110>124-180-221500-
BUOY REPORTS

STATION/POSITION TIME  TEMP    WIND        PRES    WAVE   SWELL
                       AIR SEA DIR/SP/G            HT/PER HT/DIR
                 (UTC) (F)     (DEG/KT/KT) (MB)    (FT/S) (FT/D)
BUOY 51001       1410   78 81  100/ 10/ 12 1015.6
BUOY 51101       1350   78 81   90/ 10/ 12 1016.2F   5/ 8   5/ 80
BUOY 51100       NOT AVBL
BUOY 51002       1410   75 79   70/ 10/ 14 1012.5
BUOY 51003       1350   79 80   40/  8/ 10 1013.3F   5/15   5/140
BUOY 51004       1350      79   70/ 10/ 12 1012.4F   6/15   7/140
BARBERS PT BUOY  NOT AVBL
WAIMEA BAY BUOY  1402      78                N/A     2/ 8
KAILUA BAY BUOY  1404      79                N/A     5/ 8   2/120
LANAI BUOY       NOT AVBL
BARBERS PT 2     NOT AVBL
PAUWELA MAUI     1409      79                N/A     5/ 8   2/ 60
HILO             1357      78                N/A     5/ 8   2/120
KANEOHE BAY BUOY 1355      80                N/A     5/ 8
HANALEI KAUAI    1352      80                N/A     4/ 8
KAHULUI HARBOR   1400   76 79   20/  4/  6 1014.5
HONOLULU HARBOR  1400   77 80   40/  2/  5 1015.0
KILO NALU        NOT AVBL
HILO HARBOR      1400   72 78  220/  3/  4 1013.6
MOKUOLOE         1336   78 82   70/  8/ 10 1014.9S
NAWILIWILI       1400   75     310/  4/  5 1014.9
WHOTS BUOY       NOT AVBL
BUOY 51028       NOT AVBL
$$

......................KEY........................................
  SKY/WX - SKY CONDITIONS/PRESENT WEATHER
  TMP    - TEMPERATURE IN FAHRENHEIT
  DWPT   - DEWPOINT IN FAHRENHEIT
  RH     - RELATIVE HUMIDITY IN PERCENT
  WIND   - DIRECTION AND SPEED /MPH FOR ISLANDS...KTS FOR BUOYS/
  PRES   - MEAN SEA LEVEL PRESSURE IN INCHES OF HG
  VSB    - VISIBILITY IN MILES
  HX     - HEAT INDEX
  WCI    - WIND CHILL INDEX
  VRB    - VARIABLE WIND DIRECTION
  N/A    - NOT AVAILABLE




USA.gov is the U.S. government's official web portal to all federal, state and local government web resources and services.